RH
85 86 86 86 85 84 81 82 81 80 78 78 77 74 73 71 44 47 53 49 63 64 63 63 66 66 66 66 66 67 66 65 65
85 88 88 87 86 84 81 81 80 78 77 76 76 73 74 43 43 43 46 52 63 65 66 68 69 67 65 65 65 65 66 68 66
85 88 88 87 84 81 77 78 79 77 76 76 76 75 68 46 44 44 48 68 67 66 66 66 67 68 68 69 68 66 66 67 66
86 86 85 84 81 77 81 79 78 76 76 75 77 79 76 39 43 44 55 74 66 67 66 63 67 69 69 68 69 69 68 69 62
89 86 82 81 80 76 77 79 76 76 77 77 81 81 76 40 45 44 50 69 64 62 66 65 67 68 68 69 67 65 66 63 64
78 74 86 83 82 77 80 79 81 83 83 84 83 80 39 40 42 45 72 66 62 63 65 61 61 62 65 66 67 65 63 65 63
66 74 90 86 84 80 72 81 85 77 55 58 72 40 39 41 43 49 73 63 64 62 64 62 62 63 65 63 64 64 64 64 64
75 74 71 64 79 58 67 80 61 50 49 51 44 43 42 41 44 59 74 66 64 62 62 63 63 63 64 64 64 64 65 65 65
85 74 72 65 58 52 58 64 56 54 49 46 44 44 43 41 44 61 77 70 63 62 62 63 64 63 64 64 65 65 65 66 65
90 75 73 68 55 51 54 58 56 54 51 48 45 46 45 44 48 56 82 74 68 62 62 63 63 64 64 65 65 65 65 65 65
91 85 79 74 63 56 65 58 56 52 52 52 50 50 50 47 53 69 69 77 66 64 62 62 64 64 64 65 65 66 65 65 66
93 90 82 77 74 64 64 59 56 54 53 53 53 53 52 50 54 65 66 67 78 70 60 62 63 63 64 64 64 65 66 66 66
92 96 82 79 78 74 62 61 59 56 55 54 54 53 53 52 51 53 56 64 61 70 72 65 63 62 63 64 64 66 66 66 65
93 94 84 78 78 75 64 61 57 58 56 55 56 56 55 54 50 50 60 68 69 66 73 71 69 68 64 63 64 65 65 64 64
94 93 92 81 84 80 74 61 56 55 57 61 64 64 61 59 54 52 52 56 60 65 64 70 61 75 66 64 64 64 64 64 63
96 96 96 84 83 84 70 62 66 65 65 71 71 66 62 60 58 54 53 57 57 58 58 58 54 59 72 66 64 63 62 61 60
93 94 96 94 82 82 77 70 76 76 65 66 75 94 84 70 64 59 56 55 57 60 60 58 56 55 55 63 68 63 61 59 58
94 92 93 94 85 84 80 76 70 77 69 62 58 81 68 76 68 69 64 60 60 58 61 61 60 58 56 64 63 61 59 58 56
92 94 93 95 94 84 79 76 66 67 78 69 52 47 51 62 73 68 69 62 62 62 61 61 62 61 61 67 70 72 64 60 56
90 93 92 95 96 90 80 77 72 63 69 70 62 57 58 50 54 64 72 67 62 60 60 57 58 61 62 64 69 74 64 53 47
Wind_Speed
17 16 14 16 16 17 17 17 17 15 13 13 14 13 8 5 11 12 10 12 14 15 16 16 16 16 16 16 16 17 16 15 16
18 16 17 17 17 17 17 17 17 15 14 14 13 9 4 9 9 10 11 12 15 14 16 16 18 16 17 16 16 16 16 17 16
18 16 18 18 17 17 16 16 15 15 15 15 13 9 7 8 10 10 12 11 15 14 15 15 17 16 18 17 16 16 16 16 16
18 18 18 19 18 16 16 16 16 15 15 15 12 7 2 9 9 11 9 13 14 15 14 15 16 16 15 17 16 16 16 16 14
18 16 17 18 18 17 16 16 15 15 15 14 11 7 4 10 9 8 8 15 14 14 14 14 15 16 15 16 15 16 15 14 16
18 18 15 18 18 17 16 16 15 13 12 12 11 9 5 8 6 7 11 13 13 14 14 14 14 14 15 15 15 14 14 14 15
17 16 16 17 15 16 18 17 17 12 9 8 8 5 7 6 7 7 11 12 14 13 13 13 14 14 14 13 14 14 14 14 15
12 8 11 13 13 11 13 13 10 11 9 10 8 8 7 5 6 10 10 13 12 13 13 13 13 13 12 13 13 13 13 14 13
10 9 12 11 12 13 13 9 11 11 11 12 11 10 7 6 6 9 10 11 13 13 13 12 12 11 12 12 12 12 12 12 12
9 11 10 10 13 12 13 12 11 12 12 10 11 11 9 9 7 6 8 7 11 12 12 12 11 11 10 11 11 10 11 11 11
11 9 10 10 10 11 10 12 11 10 11 11 11 11 10 10 10 5 6 7 9 11 12 11 11 11 10 10 9 10 9 9 10
14 9 11 10 9 15 12 12 11 10 10 12 10 10 10 9 12 7 5 6 6 8 10 10 10 10 10 10 9 8 8 7 8
12 11 13 12 10 11 12 12 12 11 10 9 9 9 9 10 11 10 7 4 4 4 7 9 9 9 9 9 9 8 7 6 5
10 12 11 16 12 12 13 12 13 12 11 10 9 8 8 9 8 11 8 5 3 3 5 7 7 7 8 9 9 8 7 6 5
11 9 10 16 13 11 12 16 13 12 11 10 9 7 7 7 8 9 9 9 8 4 5 4 6 5 7 8 8 8 7 6 5
9 9 11 14 16 15 17 16 17 12 12 11 7 4 4 7 7 8 8 8 8 8 8 7 5 5 4 7 8 8 7 6 4
8 11 8 13 14 18 17 18 13 8 13 10 8 4 2 3 5 6 8 10 8 8 9 8 8 6 7 7 8 8 7 6 4
8 12 11 12 13 15 18 19 21 13 14 16 8 6 8 7 4 7 8 9 8 8 8 9 8 8 7 6 5 1 4 6 6
12 12 11 14 12 16 18 17 18 15 15 12 6 5 8 8 6 4 7 9 10 11 8 8 8 8 7 8 4 9 7 7 6
16 10 13 15 10 14 20 20 20 15 16 14 11 8 5 7 4 7 10 8 10 10 10 9 9 10 9 7 8 9 10 9 9
Wind_Direction
169 158 147 136 131 129 130 124 122 120 120 117 114 113 116 132 97 98 94 96 102 97 94 97 89 86 86 85 86 87 85 81 81
171 155 145 138 137 135 137 134 128 127 131 122 116 111 104 108 106 107 101 102 106 106 102 98 99 96 91 85 83 84 84 83 77
173 155 150 147 144 140 140 135 135 141 136 127 125 121 123 122 111 108 95 93 103 105 103 103 101 97 98 93 85 82 81 79 80
172 160 159 153 150 149 146 142 148 144 138 133 131 127 182 127 110 116 111 121 117 109 113 105 101 98 96 96 91 90 86 80 82
166 162 160 153 150 156 150 146 153 144 139 133 124 119 206 116 127 116 115 119 123 117 108 112 107 105 102 98 99 97 91 95 85
168 175 160 156 156 158 157 150 144 136 131 130 132 181 137 137 128 112 120 130 127 121 118 112 111 106 106 106 102 96 92 87 85
183 170 157 158 160 160 163 149 134 159 152 144 156 168 147 142 131 123 128 138 125 126 123 123 115 112 109 110 101 99 97 93 87
183 161 163 165 162 168 162 141 163 172 165 163 174 161 154 143 132 128 134 129 140 134 127 123 118 118 113 110 107 104 99 95 90
182 172 173 172 175 172 173 172 175 173 173 173 167 165 161 153 141 134 136 152 141 140 133 130 125 123 118 112 106 104 100 96 91
186 178 176 180 178 173 172 180 174 173 171 173 173 169 165 158 135 145 134 164 145 143 140 136 132 126 122 118 113 107 106 104 98
182 178 179 179 181 171 163 179 176 173 171 173 177 171 166 161 139 121 142 144 151 152 150 143 139 135 131 123 118 114 110 105 103
318 185 181 178 173 173 172 173 173 174 174 175 174 170 170 163 151 147 150 155 157 166 159 152 149 146 141 133 127 117 115 112 111
322 317 181 175 167 169 176 175 172 174 176 172 171 175 173 172 164 164 169 148 167 176 151 161 159 156 151 141 139 131 126 118 114
312 319 195 173 170 172 171 177 178 172 173 173 169 172 177 176 175 164 165 147 161 180 157 175 165 157 167 156 150 144 138 133 126
307 312 288 173 172 172 172 170 180 178 167 157 161 168 173 180 192 176 179 186 186 183 163 161 165 169 183 170 161 159 158 155 141
320 322 317 203 174 172 176 168 169 174 155 146 132 119 168 183 192 191 191 185 192 196 184 203 177 173 195 183 179 179 175 167 161
286 285 302 259 181 175 181 162 157 159 171 169 135 144 183 201 208 204 199 196 192 194 197 201 200 190 190 184 192 194 191 181 175
287 298 293 312 214 176 176 165 169 167 182 174 151 160 209 153 182 215 215 210 204 204 202 202 201 204 200 170 167 127 203 202 196
288 272 292 313 221 190 175 178 176 166 178 175 195 212 135 182 176 206 218 216 214 211 204 207 204 204 211 208 195 172 192 217 231
296 281 285 301 205 212 181 182 181 171 181 182 171 176 180 179 162 180 189 216 220 218 213 206 207 207 209 211 207 205 212 227 242